Weather History for KAIA - April, 2012

Change the Weather History Date:

Wednesday, April 11, 2012

  Actual Average Record
Temperature  
Mean Temperature 46 °F 44 °F  
Max Temperature 55 °F 58 °F 86 °F (1996)
Min Temperature 36 °F 29 °F 3 °F (1997)
Degree Days  
Heating Degree Days 19 21  
Month to date heating degree days 204 248  
Since 1 July heating degree days 5976 6534  
Cooling Degree Days 0 0  
Month to date cooling degree days 0 0  
Year to date cooling degree days 0 0  
Moisture  
Dew Point 31 °F    
Average Humidity 59    
Maximum Humidity 76    
Minimum Humidity 41    
Precipitation  
Precipitation 0.00 in 0.06 in 0.51 in (1974)
Month to date precipitation T 0.44  
Year to date precipitation 0.86 1.85  
Sea Level Pressure  
Sea Level Pressure 30.04 in    
Wind  
Wind Speed 21 mph (SSE)    
Max Wind Speed 32 mph    
Max Gust Speed 40 mph    
Visibility 10 miles    
Events      
T = Trace of Precipitation, MM = Missing Value Source: NWS Daily Summary

Daily Weather History Graph

Daily Weather History Graph

Search for Another Location

Airport or City:

Trip Planner

Search our weather history database for the weather conditions in past years. The results will help you decide how hot, cold, wet, or windy it might be!

Date:

Astronomy

Apr. 11, 2012 Rise Set
Actual Time 6:16 AM MDT 7:28 PM MDT
Civil Twilight 5:47 AM MDT 7:57 PM MDT
Nautical Twilight 5:13 AM MDT 8:32 PM MDT
Astronomical Twilight 4:36 AM MDT 9:08 PM MDT
Moon 12:29 AM MDT (4/11) 10:02 AM MDT (4/11)
Length of Visible Light 14h 09m
Length of Day
13h 12m
Waning Gibbous, 68% of the Moon is Illuminated
Apr 11
Waning Gibbous
Apr 13
Last Quarter
Apr 21
New
Apr 29
First Quarter
May 5
Full

Hourly Weather History & Observations

Time (MDT) Temp. Windchill Dew Point Humidity Pressure Visibility Wind Dir Wind Speed Gust Speed Precip Events Conditions
12:53 AM 46.9 °F - 33.1 °F 59% 30.11 in 10.0 mi SE 11.5 mph - N/A   Mostly Cloudy
1:53 AM 44.1 °F 38.6 °F 33.1 °F 65% 30.11 in 10.0 mi SE 10.4 mph - N/A   Clear
2:53 AM 41.0 °F 35.2 °F 32.0 °F 70% 30.11 in 10.0 mi SE 9.2 mph - N/A   Partly Cloudy
3:53 AM 37.0 °F 31.6 °F 30.9 °F 79% 30.11 in 10.0 mi SE 6.9 mph - N/A   Clear
4:37 AM 37.4 °F 30.8 °F 30.2 °F 75% 30.14 in 10.0 mi SE 9.2 mph - N/A   Mostly Cloudy
4:46 AM 37.4 °F 29.8 °F 30.2 °F 75% 30.14 in 10.0 mi SE 11.5 mph - N/A   Scattered Clouds
4:53 AM 36.0 °F 29.0 °F 28.9 °F 76% 30.11 in 10.0 mi ESE 9.2 mph - N/A   Partly Cloudy
5:40 AM 37.4 °F 29.8 °F 28.4 °F 70% 30.15 in 10.0 mi SE 11.5 mph - N/A   Mostly Cloudy
5:53 AM 39.0 °F 31.0 °F 28.9 °F 67% 30.11 in 10.0 mi SE 13.8 mph - N/A   Overcast
6:53 AM 39.9 °F 31.1 °F 27.0 °F 60% 30.13 in 10.0 mi SE 17.3 mph - N/A   Overcast
7:53 AM 41.0 °F 31.9 °F 28.0 °F 60% 30.14 in 10.0 mi SE 19.6 mph 25.3 mph N/A   Overcast
8:53 AM 44.1 °F 36.2 °F 30.0 °F 58% 30.13 in 10.0 mi SSE 18.4 mph 25.3 mph N/A   Overcast
9:53 AM 44.1 °F 35.9 °F 27.0 °F 51% 30.14 in 10.0 mi SSE 19.6 mph 28.8 mph N/A   Overcast
10:53 AM 48.0 °F - 27.0 °F 44% 30.12 in 10.0 mi South 24.2 mph 32.2 mph N/A   Overcast
11:53 AM 52.0 °F - 28.9 °F 41% 30.07 in 10.0 mi SSE 25.3 mph 34.5 mph N/A   Overcast
12:53 PM 50.0 °F - 30.0 °F 46% 30.06 in 10.0 mi South 24.2 mph 34.5 mph N/A   Overcast
1:53 PM 53.1 °F - 30.9 °F 43% 30.03 in 10.0 mi SSE 25.3 mph 34.5 mph N/A   Overcast
2:53 PM 55.0 °F - 32.0 °F 42% 30.01 in 10.0 mi SSE 25.3 mph 34.5 mph N/A   Overcast
3:53 PM 53.6 °F - 33.8 °F 47% 29.99 in 10.0 mi SSE 23.0 mph 33.4 mph N/A   Overcast
4:53 PM 54.0 °F - 33.1 °F 45% 29.96 in 10.0 mi SSE 26.5 mph 34.5 mph N/A   Overcast
5:48 PM 51.8 °F - 33.8 °F 50% 29.95 in 10.0 mi SSE 24.2 mph 34.5 mph N/A   Overcast
5:53 PM 52.0 °F - 33.1 °F 49% 29.94 in 10.0 mi SSE 24.2 mph 32.2 mph N/A   Overcast
6:53 PM 51.1 °F - 33.1 °F 50% 29.95 in 10.0 mi SSE 24.2 mph 33.4 mph N/A   Overcast
7:53 PM 48.9 °F - 32.0 °F 52% 29.95 in 10.0 mi SSE 23.0 mph 33.4 mph N/A   Overcast
8:53 PM 48.0 °F - 33.1 °F 56% 29.91 in 10.0 mi SSE 27.6 mph 32.2 mph N/A   Overcast
9:53 PM 46.9 °F - 34.0 °F 61% 29.88 in 10.0 mi SSE 28.8 mph 35.7 mph N/A   Overcast
10:53 PM 46.9 °F - 34.0 °F 61% 29.87 in 10.0 mi SSE 29.9 mph 39.1 mph N/A   Overcast
11:53 PM 46.9 °F - 35.1 °F 63% 29.87 in 10.0 mi SSE 26.5 mph 36.8 mph N/A   Overcast